[[{"header":{"parameterUnit":"m.s-1","parameterCategory":1,"la1":30.2991,"la2":30.254,"lo1":-89.0895,"lo2":-89.0444,"dy":0.0017,"dx":0.0017,"nx":28,"ny":28,"refTime":"2023-11-15T09:00:00:Z","depth":0,"parameterNumber":2,"parameterNumberName":"U-component_of_WINDS"},"data":[0,0,0,0,0,0,0,0,0,0,0,0,0,0,0,0,0,0,0,0,0,0,0,0,0,0,0,0,0,0,0,0,0,0,0,0,0,0,0,0,0,0,0,0,0,0,0,0,0,0,0,0,0,0,0,0,0,0,-4.3904,-4.3906,0,-4.4084,-4.4086,-4.4088,-4.4043,-4.404,-4.4036,-4.4033,-4.4225,-4.4233,-4.4241,0,0,0,0,0,0,0,0,0,0,0,0,0,-4.3526,-4.3533,-4.3904,-4.3906,-4.3908,-4.4084,-4.4087,-4.4089,-4.4044,-4.404,-4.4035,-4.4031,-4.4222,-4.4232,-4.4242,0,0,0,0,0,0,0,0,0,0,0,0,0,-4.3697,-4.3536,-4.3903,-4.3907,-4.3909,-4.4084,-4.4087,-4.409,-4.4045,-4.4039,-4.4034,-4.4029,-4.4219,-4.4231,-4.4244,-4.4428,0,0,-4.4282,-4.4288,0,0,0,0,0,0,0,0,-4.3687,-4.3711,-4.3904,-4.3907,-4.3909,-4.4036,-4.4024,-4.4203,-4.4046,-4.3993,-4.4033,-4.4027,-4.4167,-4.4183,-4.4229,-4.4437,-4.4445,-4.4283,-4.4291,-4.4296,-4.43,0,0,0,0,0,0,0,-4.3676,-4.3703,-4.3975,-4.3907,-4.391,-4.3901,-4.392,-4.4058,-4.4108,-4.3998,-4.3995,-4.4016,-4.4167,-4.4217,-4.4233,-4.4448,-4.4283,-4.4294,-4.4302,-4.4307,-4.482,-4.4825,0,0,0,0,0,0,-4.3661,-4.3693,-4.397,-4.3981,-4.3783,-4.3912,-4.3933,-4.4001,-4.4106,-4.4117,-4.4021,-4.4014,-4.4198,-4.4219,-4.424,-4.4465,-4.4296,-4.4308,-4.4315,-4.4814,-4.4821,-4.4827,0,0,0,0,0,0,-4.3653,-4.3686,-4.3962,-4.3836,-4.3871,-4.3925,-4.4001,-4.4007,-4.4057,-4.4124,-4.4133,-4.4062,-4.4195,-4.4222,-4.4382,-4.4471,-4.4314,-4.4325,-4.4806,-4.4816,-4.4824,-4.4915,0,0,0,0,0,0,-4.3642,-4.3683,-4.3752,-4.3838,-4.3878,-4.4099,-4.4006,-4.4014,-4.4078,-4.407,-4.4165,-4.4176,-4.4193,-4.4363,-4.4394,-4.4485,-4.4335,-4.4799,-4.4811,-4.4821,-4.4904,-4.4926,-4.4945,0,0,0,0,0,-4.3629,-4.3772,-4.3756,-4.379,-4.3965,-4.4104,-4.4127,-4.4142,-4.4085,-4.4156,-4.4199,-4.4173,-4.4455,-4.438,-4.4415,-4.4511,-4.4793,-4.4807,-4.482,-4.4895,-4.4922,-4.4944,0,0,0,0,0,0,-4.3697,-4.3783,-4.3767,-4.3941,-4.4015,-4.4096,-4.4186,-4.4169,-4.4263,-4.4253,-4.4269,-4.4291,-4.4454,-4.4498,-4.4412,-4.4696,-4.4617,-4.4638,-4.4662,-4.4687,-4.4707,-4.4694,-4.4346,0,0,0,0,0,-4.3732,-4.3836,-4.3906,-4.4053,-4.4091,-4.4133,-4.4194,-4.4199,-4.4278,-4.431,-4.4364,-4.4444,-4.4551,-4.4621,-4.4723,-4.491,-4.4931,-4.4993,-4.5013,-4.503,-4.5049,-4.5153,-4.5182,-4.4872,-4.4872,-4.4872,0,0,-4.3806,-4.3866,-4.3931,-4.4069,-4.4127,-4.4237,-4.416,-4.4279,-4.4361,-4.4328,-4.4482,-4.4526,-4.4616,-4.479,-4.487,-4.4832,-4.5139,-4.5047,-4.5059,-4.507,-4.517,-4.5199,-4.5225,-4.4881,-4.488,-4.4878,0,0,-4.3997,-4.4052,-4.4181,-4.4241,-4.4329,-4.4356,-4.4387,-4.4471,-4.4498,-4.4652,-4.463,-4.473,-4.4913,-4.4978,-4.5036,-4.5253,-4.5233,-4.5285,-4.5392,-4.5493,-4.5518,-4.5539,-4.5619,-4.5647,-4.5304,-4.5304,-4.5304,0,-4.4079,-4.4241,-4.4251,-4.4372,-4.4434,-4.4407,-4.454,-4.4598,-4.4717,-4.4762,-4.4717,-4.4947,-4.5006,-4.5196,-4.5249,-4.5295,-4.5334,-4.5276,-4.5513,-4.5535,-4.5555,-4.5632,-4.5661,-4.531,-4.5309,-4.5309,-4.5308,0,-4.4338,-4.4451,-4.4546,-4.4659,-4.4731,-4.4858,-4.4889,-4.4962,-4.4961,-4.4993,-4.5152,-4.5221,-4.5337,-4.5382,-4.5383,-4.5574,-4.5548,-4.5508,-4.5429,-4.5591,-4.5663,-4.5692,-4.5318,-4.5316,-4.5315,-4.5313,0,0,-4.4579,-4.4695,-4.473,-4.4781,-4.4877,-4.4966,-4.5092,-4.5204,-4.5267,-4.535,-4.5458,-4.5614,-4.5578,-4.5643,-4.565,-4.5739,-4.591,-4.5689,-4.5691,-4.5729,-4.6127,-4.6158,-4.6192,-4.5896,-4.5901,-4.5906,-4.6121,0,-4.478,-4.5,-4.5013,-4.5214,-4.532,-4.5296,-4.5406,-4.5478,-4.5512,-4.5608,-4.5646,-4.5757,-4.5699,-4.5739,-4.5826,-4.587,-4.599,-4.5855,-4.6,-4.6005,-4.598,-4.6229,-4.6262,-4.6461,-4.6148,-4.6153,-4.6157,0,-4.5045,-4.5134,-4.5345,-4.5426,-4.5471,-4.557,-4.5674,-4.5766,-4.5848,-4.5866,-4.5939,-4.5934,-4.6067,-4.5981,-4.6165,-4.6073,-4.6133,-4.6164,-4.6172,-4.6188,-4.6092,-4.6254,-4.6525,-4.6556,-4.6201,-4.6197,-4.6194,0,-4.5202,-4.5374,-4.5523,-4.5568,-4.5666,-4.5737,-4.5782,-4.5858,-4.5925,-4.6017,-4.6061,-4.6167,-4.6227,-4.631,-4.6336,-4.6271,-4.6521,-4.6436,-4.6542,-4.6542,-4.6598,-4.6594,-4.6884,-4.6633,-4.6632,-4.6632,-4.6631,0,-4.5427,-4.5557,-4.5595,-4.5687,-4.5833,-4.5847,-4.5993,-4.6033,-4.6102,-4.6203,-4.6189,-4.6285,-4.6311,-4.6413,-4.6434,-4.6585,-4.6611,-4.6632,-4.6637,-4.6635,-4.6632,-4.6676,-4.6664,-4.664,-4.6638,-4.6636,-4.6635,0,-4.5628,-4.5658,-4.5819,-4.5898,-4.5922,-4.6026,-4.6096,-4.6186,-4.6216,-4.6345,-4.6376,-4.6426,-4.6545,-4.6578,-4.6721,-4.6735,-4.6913,-4.6904,-4.6885,-4.6886,-4.699,-4.6981,-4.7321,-4.7367,-4.7083,-4.7085,-4.7087,0,-4.577,-4.587,-4.596,-4.6026,-4.6073,-4.6179,-4.6247,-4.6265,-4.6336,-4.6438,-4.6516,-4.6633,-4.6727,-4.6919,-4.697,-4.708,-4.7074,-4.7186,-4.7091,-4.7087,-4.7079,-4.7074,-4.7085,-4.7205,-4.7208,-4.721,-4.7212,0,-4.6021,-4.6031,-4.6127,-4.6231,-4.6311,-4.6393,-4.6473,-4.6528,-4.6558,-4.6639,-4.6759,-4.6832,-4.6978,-4.7095,-4.7206,-4.7255,-4.7241,-4.7241,-4.7272,-4.7272,-4.7258,-4.7269,-4.6936,-4.7234,-4.7232,-4.723,-4.7229,-4.7228,-4.6199,-4.6287,-4.6364,-4.6473,-4.6534,-4.6608,-4.6696,-4.6738,-4.6838,-4.6956,-4.6961,-4.7093,-4.7174,-4.7322,-4.7377,-4.7482,-4.7449,-4.7493,-4.7504,-4.7516,-4.7525,-4.7239,-4.7502,-4.7501,-4.7501,-4.75,-4.75,0,-4.645,-4.6499,-4.6598,-4.6709,-4.6795,-4.677,-4.6857,-4.6931,-4.7046,-4.7122,-4.7215,-4.7355,-4.7468,-4.7527,-4.7641,-4.7714,-4.771,-4.7744,-4.774,-4.7752,-4.7547,-4.751,-4.7745,-4.7745,-4.7745,-4.7745,-4.7745,-4.7745,-4.6592,-4.674,-4.6759,-4.6938,-4.6986,-4.7113,-4.7165,-4.7235,-4.7295,-4.7451,-4.7544,-4.7581,-4.7652,-4.7771,-4.7875,-4.789,-4.7933,-4.7971,-4.7983,-4.7791,-4.7766,-4.7742,-4.7707,-4.798,-4.798,-4.8179,-4.8181,-4.8182]},{"header":{"parameterUnit":"m.s-1","parameterCategory":1,"la1":30.2991,"la2":30.254,"lo1":-89.0895,"lo2":-89.0444,"dy":0.0017,"dx":0.0017,"nx":28,"ny":28,"refTime":"2023-11-15T09:00:00:Z","depth":0,"parameterNumber":3,"parameterNumberName":"V-component_of_WINDS"},"data":[0,0,0,0,0,0,0,0,0,0,0,0,0,0,0,0,0,0,0,0,0,0,0,0,0,0,0,0,0,0,0,0,0,0,0,0,0,0,0,0,0,0,0,0,0,0,0,0,0,0,0,0,0,0,0,0,0,0,-5.7678,-5.7677,0,-5.7575,-5.7574,-5.7573,-5.7407,-5.7404,-5.7401,-5.7398,-5.7295,-5.7295,-5.7295,0,0,0,0,0,0,0,0,0,0,0,0,0,-5.7731,-5.7731,-5.7678,-5.7677,-5.7675,-5.7575,-5.7574,-5.7573,-5.7407,-5.7404,-5.74,-5.7397,-5.7295,-5.7295,-5.7295,0,0,0,0,0,0,0,0,0,0,0,0,0,-5.7676,-5.7731,-5.7678,-5.7581,-5.7571,-5.7576,-5.7574,-5.7572,-5.7408,-5.7404,-5.7399,-5.7395,-5.7295,-5.7295,-5.7295,-5.7387,0,0,-5.7295,-5.7295,0,0,0,0,0,0,0,0,-5.768,-5.7675,-5.7596,-5.7587,-5.7576,-5.7499,-5.7555,-5.751,-5.7409,-5.747,-5.7398,-5.7393,-5.7367,-5.736,-5.7351,-5.7382,-5.7378,-5.7295,-5.7295,-5.7295,-5.7295,0,0,0,0,0,0,0,-5.7684,-5.7678,-5.7637,-5.7595,-5.7583,-5.7542,-5.753,-5.7546,-5.7445,-5.7464,-5.7452,-5.7442,-5.736,-5.7352,-5.7348,-5.7376,-5.7295,-5.7295,-5.7295,-5.7296,-5.7475,-5.748,0,0,0,0,0,0,-5.7702,-5.7682,-5.764,-5.7634,-5.7618,-5.7545,-5.7531,-5.7529,-5.7445,-5.7427,-5.7446,-5.7435,-5.7354,-5.7348,-5.7343,-5.7444,-5.7295,-5.7296,-5.7296,-5.7471,-5.7476,-5.7481,0,0,0,0,0,0,-5.7703,-5.77,-5.7645,-5.7655,-5.7645,-5.7549,-5.7548,-5.7529,-5.752,-5.7431,-5.7412,-5.7456,-5.735,-5.7343,-5.7377,-5.7438,-5.7296,-5.7296,-5.7465,-5.7472,-5.7479,-5.7648,0,0,0,0,0,0,-5.7706,-5.7701,-5.7735,-5.7657,-5.7645,-5.768,-5.7552,-5.753,-5.7521,-5.7505,-5.7435,-5.7419,-5.7346,-5.7378,-5.7377,-5.7436,-5.7296,-5.7459,-5.7468,-5.7477,-5.7637,-5.766,-5.768,0,0,0,0,0,-5.7708,-5.7788,-5.7738,-5.7734,-5.7685,-5.7684,-5.7677,-5.7591,-5.7526,-5.7559,-5.7502,-5.7421,-5.7432,-5.7382,-5.738,-5.744,-5.7455,-5.7466,-5.7476,-5.7627,-5.7655,-5.768,0,0,0,0,0,0,-5.7877,-5.7776,-5.7719,-5.7775,-5.774,-5.7656,-5.7695,-5.7624,-5.7606,-5.7593,-5.7487,-5.7472,-5.7519,-5.7483,-5.743,-5.7524,-5.7431,-5.7441,-5.7546,-5.7573,-5.7594,-5.7602,-5.7296,0,0,0,0,0,-5.792,-5.7927,-5.7839,-5.7897,-5.7882,-5.7792,-5.7789,-5.7725,-5.7684,-5.7668,-5.7613,-5.7576,-5.757,-5.757,-5.756,-5.763,-5.7612,-5.7671,-5.7692,-5.7711,-5.7721,-5.7754,-5.7779,-5.7516,-5.7516,-5.7516,0,0,-5.801,-5.7956,-5.7967,-5.7929,-5.7894,-5.7904,-5.7781,-5.7797,-5.7803,-5.767,-5.7698,-5.7657,-5.7608,-5.7661,-5.7681,-5.7632,-5.7789,-5.7724,-5.774,-5.774,-5.7768,-5.7793,-5.7815,-5.7523,-5.7522,-5.7521,0,0,-5.818,-5.814,-5.8183,-5.815,-5.8098,-5.8037,-5.8048,-5.7975,-5.7942,-5.7968,-5.7869,-5.7875,-5.7868,-5.7837,-5.7821,-5.7978,-5.7903,-5.7978,-5.8092,-5.8125,-5.8146,-5.8164,-5.8219,-5.824,-5.7989,-5.7989,-5.7989,0,-5.8299,-5.8309,-5.8215,-5.8236,-5.8223,-5.8102,-5.8146,-5.8118,-5.8066,-5.8059,-5.8005,-5.7993,-5.7952,-5.7995,-5.8033,-5.8024,-5.8032,-5.7985,-5.8151,-5.8167,-5.8183,-5.8234,-5.8255,-5.7998,-5.7997,-5.7996,-5.7996,0,-5.8458,-5.8467,-5.8508,-5.8459,-5.845,-5.8483,-5.8393,-5.8395,-5.8333,-5.8278,-5.8306,-5.8253,-5.8229,-5.8235,-5.8174,-5.8269,-5.8239,-5.817,-5.8074,-5.8219,-5.8265,-5.8284,-5.8012,-5.8009,-5.8006,-5.8003,0,0,-5.873,-5.8629,-5.8645,-5.8621,-5.8555,-5.856,-5.8587,-5.8563,-5.8566,-5.8534,-5.8554,-5.855,-5.8485,-5.8466,-5.8401,-5.8431,-5.8557,-5.8356,-5.8353,-5.8395,-5.8656,-5.8709,-5.8733,-5.8506,-5.851,-5.8512,-5.866,0,-5.8885,-5.8925,-5.8841,-5.8901,-5.8908,-5.8793,-5.8816,-5.8778,-5.8728,-5.8726,-5.8669,-5.8669,-5.8582,-5.857,-5.8594,-5.8537,-5.8608,-5.8525,-5.8523,-5.8524,-5.8538,-5.8757,-5.8813,-5.8955,-5.8677,-5.868,-5.8682,0,-5.9072,-5.9048,-5.9109,-5.9038,-5.9037,-5.906,-5.9031,-5.903,-5.8984,-5.8945,-5.8924,-5.8847,-5.8868,-5.8776,-5.8802,-5.8748,-5.8742,-5.8713,-5.8716,-5.8713,-5.8612,-5.8759,-5.8998,-5.902,-5.871,-5.8708,-5.8706,0,-5.9264,-5.9248,-5.9281,-5.9265,-5.9182,-5.92,-5.9167,-5.9116,-5.9107,-5.9082,-5.9074,-5.9053,-5.9041,-5.9025,-5.8944,-5.8884,-5.898,-5.8881,-5.8947,-5.895,-5.8973,-5.8972,-5.9214,-5.897,-5.897,-5.897,-5.8969,0,-5.9446,-5.9487,-5.9366,-5.9387,-5.943,-5.9333,-5.9378,-5.9333,-5.9288,-5.9298,-5.9198,-5.9209,-5.9101,-5.9101,-5.9037,-5.9068,-5.9064,-5.9032,-5.9015,-5.9041,-5.9045,-5.9036,-5.9024,-5.8975,-5.8974,-5.8973,-5.8972,0,-5.9668,-5.9588,-5.9617,-5.9537,-5.9517,-5.9553,-5.9483,-5.9499,-5.9442,-5.9455,-5.9453,-5.9363,-5.9357,-5.9274,-5.9251,-5.9208,-5.9264,-5.9228,-5.928,-5.9268,-5.9338,-5.9333,-5.9582,-5.961,-5.935,-5.9352,-5.9354,0,-5.9789,-5.9818,-5.974,-5.9739,-5.971,-5.9711,-5.97,-5.9605,-5.9599,-5.9548,-5.957,-5.9555,-5.9538,-5.9534,-5.9466,-5.9447,-5.941,-5.9498,-5.9406,-5.9431,-5.941,-5.9409,-5.9411,-5.9518,-5.9521,-5.9524,-5.9526,0,-6.0012,-5.9971,-5.996,-5.9936,-5.9927,-5.9903,-5.9873,-5.9878,-5.9773,-5.9771,-5.9763,-5.9751,-5.9725,-5.9712,-5.9681,-5.9645,-5.9569,-5.9556,-5.957,-5.9597,-5.9625,-5.961,-5.9332,-5.9551,-5.9548,-5.9546,-5.9545,-5.9544,-6.0186,-6.0206,-6.0154,-6.0146,-6.0113,-6.0087,-6.0098,-6.0041,-6.0033,-6.0005,-5.9949,-5.995,-5.9901,-5.9851,-5.9822,-5.982,-5.9775,-5.9796,-5.9801,-5.9807,-5.9821,-5.9626,-5.9814,-5.9813,-5.9813,-5.9812,-5.9811,0,-6.0403,-6.0364,-6.0357,-6.0318,-6.0311,-6.0239,-6.0202,-6.0201,-6.0202,-6.0163,-6.0149,-6.0139,-6.0125,-6.0057,-6.0035,-6.0047,-6.0011,-6.0044,-6.0042,-6.0035,-5.9864,-5.9853,-6.0074,-6.0074,-6.0074,-6.0074,-6.0073,-6.0073,-6.0516,-6.0546,-6.0499,-6.0511,-6.0471,-6.0471,-6.0456,-6.0431,-6.0399,-6.0393,-6.0381,-6.0336,-6.0284,-6.0258,-6.0242,-6.0221,-6.0218,-6.0263,-6.0232,-6.0073,-6.0047,-6.0023,-6.0013,-6.0263,-6.0264,-6.0403,-6.0404,-6.0405]}]]